TimeCDT,TemperatureF,Dew PointF,Humidity,Sea Level PressureIn,VisibilityMPH,Wind Direction,Wind SpeedMPH,Gust SpeedMPH,PrecipitationIn,Events,Conditions,WindDirDegrees,DateUTC
12:15 AM,69.8,-9999,N/A,29.83,10.0,Calm,Calm,-,N/A,,Clear,0,2013-09-26 05:15:00
12:35 AM,69.8,-9999,N/A,29.83,10.0,Calm,Calm,-,N/A,,Clear,0,2013-09-26 05:35:00
12:55 AM,69.8,-9999,N/A,29.83,10.0,WNW,3.5,-,N/A,,Clear,300,2013-09-26 05:55:00
1:15 AM,69.8,-9999,N/A,29.83,9.0,Calm,Calm,-,N/A,,Partly Cloudy,0,2013-09-26 06:15:00
1:35 AM,68.0,-9999,N/A,29.83,4.0,North,3.5,-,N/A,,Partly Cloudy,10,2013-09-26 06:35:00
1:55 AM,69.8,-9999,N/A,29.83,9.0,Calm,Calm,-,N/A,,Scattered Clouds,0,2013-09-26 06:55:00
2:15 AM,68.0,-9999,N/A,29.83,5.0,Calm,Calm,-,N/A,,Partly Cloudy,0,2013-09-26 07:15:00
2:35 AM,68.0,-9999,N/A,29.84,9.0,ENE,4.6,-,N/A,,Clear,60,2013-09-26 07:35:00
2:55 AM,68.0,-9999,N/A,29.84,7.0,NE,3.5,-,N/A,,Scattered Clouds,50,2013-09-26 07:55:00
3:15 AM,69.8,-9999,N/A,29.84,10.0,East,5.8,-,N/A,,Scattered Clouds,80,2013-09-26 08:15:00
3:35 AM,69.8,-9999,N/A,29.84,10.0,ENE,5.8,-,N/A,,Clear,70,2013-09-26 08:35:00
3:55 AM,69.8,-9999,N/A,29.84,10.0,East,5.8,-,N/A,,Clear,80,2013-09-26 08:55:00
4:15 AM,69.8,-9999,N/A,29.84,10.0,ESE,3.5,-,N/A,,Clear,110,2013-09-26 09:15:00
4:35 AM,69.8,-9999,N/A,29.85,10.0,ESE,9.2,-,N/A,,Clear,120,2013-09-26 09:35:00
4:55 AM,69.8,-9999,N/A,29.85,10.0,East,4.6,-,N/A,,Clear,80,2013-09-26 09:55:00
5:15 AM,68.0,-9999,N/A,29.87,10.0,ESE,3.5,-,N/A,,Clear,120,2013-09-26 10:15:00
5:35 AM,68.0,-9999,N/A,29.87,10.0,East,3.5,-,N/A,,Clear,90,2013-09-26 10:35:00
5:45 AM,68.0,66.2,94,29.87,10.0,Calm,Calm,-,N/A,,Clear,0,2013-09-26 10:45:00
5:55 AM,66.2,-9999,N/A,29.88,8.0,SE,3.5,-,N/A,,Clear,130,2013-09-26 10:55:00
6:23 AM,68.0,66.2,94,29.89,0.5,SE,5.8,-,N/A,Fog,Fog,130,2013-09-26 11:23:00
6:55 AM,68.0,68.0,100,29.91,0.2,East,4.6,-,N/A,Fog,Fog,100,2013-09-26 11:55:00
7:45 AM,68.0,68.0,100,29.93,0.5,ESE,4.6,-,N/A,Fog,Fog,120,2013-09-26 12:45:00
8:35 AM,68.0,-9999,N/A,29.95,2.5,East,5.8,-,N/A,,Overcast,100,2013-09-26 13:35:00
8:45 AM,68.0,68.0,100,29.95,1.5,ESE,5.8,-,N/A,Fog,Fog,110,2013-09-26 13:45:00
9:45 AM,69.8,68.0,94,29.96,1.5,East,5.8,-,N/A,,Overcast,80,2013-09-26 14:45:00
10:45 AM,71.6,68.0,88,29.97,3.0,East,5.8,-,N/A,,Overcast,100,2013-09-26 15:45:00
11:45 AM,71.6,68.0,88,29.97,4.0,East,5.8,-,N/A,,Overcast,80,2013-09-26 16:45:00
12:45 PM,71.6,69.8,94,29.97,5.0,East,6.9,-,N/A,,Overcast,100,2013-09-26 17:45:00
1:15 PM,71.6,68.0,88,29.96,5.0,ESE,4.6,-,N/A,,Overcast,110,2013-09-26 18:15:00
1:50 PM,71.6,68.0,88,29.96,8.0,Calm,Calm,-,N/A,,Overcast,0,2013-09-26 18:50:00
2:50 PM,73.4,68.0,83,29.95,8.0,ESE,4.6,-,N/A,,Overcast,120,2013-09-26 19:50:00
3:50 PM,75.2,68.0,78,29.95,8.0,Calm,Calm,-,N/A,,Mostly Cloudy,0,2013-09-26 20:50:00
4:50 PM,75.2,66.2,73,29.95,10.0,NE,4.6,-,N/A,,Mostly Cloudy,50,2013-09-26 21:50:00
5:30 PM,77.0,66.2,69,29.94,10.0,Calm,Calm,-,N/A,,Partly Cloudy,0,2013-09-26 22:30:00
6:55 PM,71.6,66.2,83,29.95,10.0,Calm,Calm,-,N/A,,Clear,0,2013-09-26 23:55:00
7:55 PM,69.8,66.2,88,29.95,10.0,Calm,Calm,-,N/A,,Clear,0,2013-09-27 00:55:00
8:15 PM,69.8,66.2,88,29.96,10.0,NNE,3.5,-,N/A,,Clear,20,2013-09-27 01:15:00
8:35 PM,68.0,66.2,94,29.97,8.0,Calm,Calm,-,N/A,,Clear,0,2013-09-27 01:35:00
8:55 PM,66.2,64.4,94,29.97,8.0,Calm,Calm,-,N/A,,Clear,0,2013-09-27 01:55:00
9:15 PM,66.2,64.4,94,29.97,3.0,Calm,Calm,-,N/A,,Clear,0,2013-09-27 02:15:00
9:35 PM,66.2,64.4,94,29.97,3.0,Calm,Calm,-,N/A,,Clear,0,2013-09-27 02:35:00
9:55 PM,66.2,64.4,94,29.98,0.5,Calm,Calm,-,N/A,,Unknown,0,2013-09-27 02:55:00
10:15 PM,66.2,64.4,94,29.98,1.0,Calm,Calm,-,N/A,,Clear,0,2013-09-27 03:15:00
10:35 PM,66.2,64.4,94,29.98,3.0,Calm,Calm,-,N/A,,Clear,0,2013-09-27 03:35:00
10:55 PM,64.4,62.6,94,29.98,0.2,Calm,Calm,-,N/A,,Unknown,0,2013-09-27 03:55:00
11:15 PM,64.4,64.4,100,29.98,0.2,Calm,Calm,-,N/A,,Unknown,0,2013-09-27 04:15:00
11:35 PM,62.6,60.8,94,29.99,0.5,Calm,Calm,-,N/A,,Unknown,0,2013-09-27 04:35:00
11:55 PM,62.6,62.6,100,29.98,0.5,Calm,Calm,-,N/A,,Unknown,0,2013-09-27 04:55:00